Chattahoochee River Whitewater Weather Center

Moon Phase Calendar



Online Cameras

 


      

Current Conditions in Phenix City
11/24/2020 6:44:57 PM

59°F
Feels Like 54
Clear
Humidity
55%
Pressure
30.21"
Wind
5.8 mph (ESE)
Dew Point
43°F
UV Index
4/10 (Moderate)
Visibility
6 mi

Hourly Forecast

Date & Time Tue, Nov 24
6:00 PM
Tue, Nov 24
7:00 PM
Tue, Nov 24
8:00 PM
Tue, Nov 24
9:00 PM
Tue, Nov 24
10:00 PM
Tue, Nov 24
11:00 PM
Wed, Nov 25
12:00 AM
Wed, Nov 25
1:00 AM
Wed, Nov 25
2:00 AM
Wed, Nov 25
3:00 AM
Wed, Nov 25
4:00 AM
Wed, Nov 25
5:00 AM
Wed, Nov 25
6:00 AM
Wed, Nov 25
7:00 AM
Wed, Nov 25
8:00 AM
Wed, Nov 25
9:00 AM
Wed, Nov 25
10:00 AM
Wed, Nov 25
11:00 AM
Wed, Nov 25
12:00 PM
Wed, Nov 25
1:00 PM
Wed, Nov 25
2:00 PM
Wed, Nov 25
3:00 PM
Wed, Nov 25
4:00 PM
Wed, Nov 25
5:00 PM
Wed, Nov 25
6:00 PM
Wed, Nov 25
7:00 PM
Wed, Nov 25
8:00 PM
Wed, Nov 25
9:00 PM
Wed, Nov 25
10:00 PM
Wed, Nov 25
11:00 PM
Thu, Nov 26
12:00 AM
Thu, Nov 26
1:00 AM
Thu, Nov 26
2:00 AM
Thu, Nov 26
3:00 AM
Thu, Nov 26
4:00 AM
Thu, Nov 26
5:00 AM
Thu, Nov 26
6:00 AM
Thu, Nov 26
7:00 AM
Thu, Nov 26
8:00 AM
Thu, Nov 26
9:00 AM
Thu, Nov 26
10:00 AM
Thu, Nov 26
11:00 AM
Thu, Nov 26
12:00 PM
Thu, Nov 26
1:00 PM
Thu, Nov 26
2:00 PM
Thu, Nov 26
3:00 PM
Thu, Nov 26
4:00 PM
Thu, Nov 26
5:00 PM
Condition
Clear

Clouds

Clouds

Clouds

Clouds

Clouds

Clouds

Clouds

Clouds

Clouds

Clouds

Clouds

Clouds

Clouds

Clouds

Clouds

Clouds

Clouds

Clouds

Clouds

Clouds

Clouds

Clouds

Clouds

Clouds

Clouds

Rain

Rain

Rain

Rain

Clouds

Clouds

Clouds

Rain

Rain

Rain

Rain

Clouds

Rain

Rain

Rain

Rain

Rain

Rain

Rain

Rain

Rain

Rain
Temperature 59°F58°F57°F57°F56°F56°F56°F56°F56°F56°F56°F56°F57°F57°F58°F59°F63°F65°F70°F70°F70°F72°F72°F71°F68°F68°F66°F65°F65°F65°F65°F66°F66°F66°F66°F66°F65°F65°F65°F67°F69°F71°F73°F76°F77°F77°F76°F73°F
Feels Like 54°F53°F52°F51°F51°F52°F52°F53°F53°F53°F53°F53°F54°F55°F55°F56°F60°F62°F66°F67°F68°F70°F71°F71°F68°F67°F66°F66°F65°F65°F65°F66°F67°F67°F68°F68°F68°F68°F68°F69°F72°F74°F77°F78°F78°F78°F77°F76°F
Cloudiness 1%13%32%24%43%42%47%42%97%89%89%88%90%90%100%100%92%93%92%93%100%98%91%87%84%86%100%94%66%57%59%65%97%98%99%97%95%95%97%92%92%93%90%85%0%0%1%1%
Visibility 6 mi6 mi6 mi6 mi6 mi6 mi6 mi6 mi6 mi6 mi6 mi6 mi6 mi6 mi6 mi6 mi6 mi6 mi6 mi6 mi6 mi6 mi6 mi6 mi6 mi6 mi6 mi6 mi6 mi6 mi6 mi6 mi6 mi6 mi6 mi6 mi6 mi6 mi6 mi6 mi6 mi6 mi6 mi6 mi6 mi6 mi6 mi6 mi
Precipitation 0%0%0%0%0%0%0%0%0%0%0%0%0%0%0%0%0%0%0%0%0%4%13%17%17%17%40%35%43%47%43%39%39%55%59%55%68%68%55%62%67%79%88%99%100%100%100%100%
Humidity 55%60%65%69%72%76%82%87%89%90%92%92%89%90%87%83%75%72%66%67%68%66%68%72%78%79%86%90%93%94%94%93%94%94%95%96%96%96%96%92%88%84%77%68%63%64%65%74%
Dew Point 43°F45°F46°F46°F47°F49°F50°F52°F53°F54°F53°F54°F54°F54°F54°F54°F55°F56°F58°F59°F60°F60°F61°F61°F61°F61°F62°F62°F63°F63°F64°F64°F64°F65°F65°F64°F64°F64°F64°F65°F66°F66°F66°F65°F64°F64°F64°F65°F
Pressure 30.21"30.21"30.24"30.24"30.24"30.24"30.24"30.24"30.21"30.21"30.21"30.21"30.21"30.21"30.21"30.21"30.21"30.21"30.18"30.15"30.12"30.09"30.09"30.09"30.09"30.09"30.09"30.09"30.09"30.09"30.09"30.09"30.09"30.09"30.06"30.09"30.09"30.09"30.12"30.12"30.12"30.12"30.12"30.09"30.06"30.06"30.03"30.03"
Wind Speed 6.5 mph6.7 mph6.9 mph7.9 mph8 mph7.4 mph6.6 mph6.4 mph7.6 mph7.4 mph6.5 mph7 mph7 mph5.6 mph7 mph9.2 mph8.6 mph9.4 mph10.5 mph10.2 mph9.6 mph9.7 mph8.5 mph5.7 mph6.9 mph7.8 mph6.1 mph6.5 mph6.9 mph7.6 mph8.6 mph8.4 mph7.2 mph7 mph5.7 mph4.4 mph4.1 mph3.8 mph4.2 mph5.4 mph5.2 mph4.1 mph4.4 mph5.4 mph6.1 mph6.6 mph6 mph4.4 mph
Wind
Direction
99°
E
98°
E
98°
E
98°
E
102°
ESE
107°
ESE
101°
E
110°
ESE
120°
ESE
124°
SE
122°
ESE
127°
SE
128°
SE
130°
SE
130°
SE
134°
SE
150°
SSE
164°
SSE
171°
S
181°
S
187°
S
182°
S
172°
S
163°
SSE
160°
SSE
173°
S
178°
S
183°
S
188°
S
187°
S
192°
SSW
194°
SSW
199°
SSW
201°
SSW
204°
SSW
206°
SSW
203°
SSW
194°
SSW
183°
S
201°
SSW
216°
SW
216°
SW
217°
SW
221°
SW
227°
SW
232°
SW
233°
SW
229°
SW

Daily Forecast

Date High Low Precip. Humidity
Today
Nov 24

Clear
64 °F
48 °F
0%
41%
Wednesday
Nov 25

Rain
71 °F
56 °F
60%
62%
Thursday
Nov 26

Rain
74 °F
65 °F
100%
73%
Friday
Nov 27

Rain
77 °F
62 °F
100%
67%
Saturday
Nov 28

Rain
72 °F
62 °F
100%
66%
Sunday
Nov 29

Rain
60 °F
57 °F
100%
93%
Monday
Nov 30

Rain
57 °F
33 °F
96%
57%
Tuesday
Dec 1

Clear
44 °F
30 °F
0%
51%
Wednesday
Dec 2

Rain
54 °F
34 °F
100%
41%
Thursday
Dec 3

Rain
48 °F
35 °F
100%
53%
Friday
Dec 4

Clear
53 °F
32 °F
0%
43%
Saturday
Dec 5

Clear
56 °F
35 °F
0%
42%
Sunday
Dec 6

Clouds
55 °F
35 °F
0%
40%
Monday
Dec 7

Clouds
47 °F
42 °F
0%
61%
Tuesday
Dec 8

Clouds
58 °F
42 °F
0%
62%
Wednesday
Dec 9

Clear
58 °F
40 °F
0%
49%


Temperature 8-14 Day Outlook



Precipitation 8-14 Day Outlook




Quick Links
Chattahoochee River Whitewater News
Chattahoochee River Whitewater Photos
Chattahoochee River Whitewater Videos




About Us
Contact Us
Site Map
Search Site
Advertise With Us
   
www.ChattahoocheeRiverWhitewater.com
THE CHATTAHOOCHEE RIVER WHITEWATER WEBSITE

Copyright 2020, Discover Rivers
Privacy    |    Legal